Date String (YYYY-MM-DD hh:mm:ss) UTC,Instrument flags,Ambient pressure (hPa),Sample flow (lpm),Bypass flow (lpm),Sample temperature (°C),Ambient temperature (°C),ASC tube jacket temperature (°C),LED temperature (°C),Box temperature (°C),Sample RH (%),Span deviation,Mass concentration (μg/m³),Mass concentration (μg/m³),Mass concentration (μg/m³)
DateTimeUTC,F1_M11,P_M11,Q1_M11,Q2_M11,T1_M11,T2_M11,T3_M11,T4_M11,T5_M11,U1_M11,ZSPAN_M11,X0_M11,X2_M11,X1_M11
2022-07-30 04:00:00,,0830.5,5.01,0.00,30.3,28.1,00.0,39.0,31.8,28.9,0000.0,0009.00,0004.91,0004.34
2022-07-30 04:01:00,,0830.5,4.99,0.00,30.3,28.2,00.0,39.0,31.8,29.0,0000.0,0009.75,0004.92,0004.33
2022-07-30 04:02:00,,0830.5,5.00,0.00,30.3,28.3,00.0,39.0,31.8,28.9,0000.0,0010.04,0004.94,0004.33
2022-07-30 04:03:00,,0830.5,4.99,0.00,30.3,28.4,00.0,39.0,31.9,29.1,0000.0,0009.20,0004.91,0004.32
2022-07-30 04:04:00,,0830.5,5.01,0.00,30.3,28.5,00.0,39.0,31.9,28.9,0000.0,0009.04,0004.89,0004.31
2022-07-30 04:05:00,,0830.5,5.01,0.00,30.3,28.6,00.0,39.0,31.9,28.8,0000.0,0009.05,0004.87,0004.31
2022-07-30 04:06:00,,0830.4,4.99,0.00,30.3,28.7,00.0,39.0,31.9,28.9,0000.0,0009.06,0004.86,0004.31
2022-07-30 04:07:00,,0830.4,5.00,0.00,30.3,28.7,00.0,39.0,31.9,28.9,0000.0,0009.00,0004.82,0004.30
2022-07-30 04:08:00,,0830.4,5.01,0.00,30.3,28.8,00.0,39.0,31.9,28.9,0000.0,0009.18,0004.81,0004.30
2022-07-30 04:09:00,,0830.4,4.98,0.00,30.3,28.8,00.0,39.0,32.0,28.9,0000.0,0009.37,0004.77,0004.30
2022-07-30 04:10:00,,0830.4,5.01,0.00,30.3,28.9,00.0,39.0,32.0,29.0,0000.0,0009.92,0004.76,0004.29
2022-07-30 04:11:00,,0830.4,5.00,0.00,30.3,28.3,00.0,38.9,31.8,28.9,0000.0,0010.42,0004.77,0004.30
2022-07-30 04:12:00,,0830.4,5.01,0.00,30.2,27.7,00.0,38.9,31.7,28.9,0000.0,0010.05,0004.82,0004.31
2022-07-30 04:13:00,,0830.4,4.99,0.00,30.1,27.5,00.0,38.9,31.6,29.1,0000.0,0010.28,0004.80,0004.30
2022-07-30 04:14:00,,0830.4,5.01,0.00,30.0,27.5,00.0,38.8,31.5,29.3,0000.0,0010.41,0004.81,0004.30
2022-07-30 04:15:00,,0830.4,5.00,0.00,30.0,27.6,00.0,38.8,31.5,29.2,0000.0,0011.02,0004.82,0004.30
2022-07-30 04:16:00,,0830.4,5.00,0.00,30.0,27.7,00.0,38.8,31.5,29.1,0000.0,0011.23,0004.84,0004.29
2022-07-30 04:17:00,,0830.5,5.01,0.00,29.9,27.9,00.0,38.8,31.6,29.1,0000.0,0011.84,0004.85,0004.30
2022-07-30 04:18:00,,0830.4,5.00,0.00,29.9,28.0,00.0,38.7,31.6,29.1,0000.0,0011.88,0004.87,0004.30
2022-07-30 04:19:00,,0830.4,5.00,0.00,29.9,28.1,00.0,38.7,31.7,29.2,0000.0,0012.29,0004.85,0004.29
2022-07-30 04:20:00,,0830.4,5.00,0.00,29.9,28.2,00.0,38.7,31.7,29.4,0000.0,0012.54,0004.91,0004.28
2022-07-30 04:21:00,,0830.4,5.00,0.00,29.9,28.3,00.0,38.7,31.7,29.2,0000.0,0011.86,0004.90,0004.28
2022-07-30 04:22:00,,0830.4,5.00,0.00,30.0,28.4,00.0,38.7,31.7,29.3,0000.0,0011.41,0004.88,0004.27
2022-07-30 04:23:00,,0830.4,5.01,0.00,30.0,28.5,00.0,38.7,31.7,29.3,0000.0,0011.26,0004.85,0004.25
2022-07-30 04:24:00,,0830.4,5.00,0.00,30.0,28.6,00.0,38.7,31.8,29.1,0000.0,0010.73,0004.86,0004.25
2022-07-30 04:25:00,,0830.4,5.00,0.00,30.0,28.6,00.0,38.7,31.9,28.9,0000.0,0010.87,0004.89,0004.26
2022-07-30 04:26:00,,0830.4,5.00,0.00,30.0,28.7,00.0,38.7,31.9,28.6,0000.0,0010.97,0004.91,0004.26
2022-07-30 04:27:00,,0830.4,5.00,0.00,30.0,28.7,00.0,38.7,31.9,28.6,0000.0,0010.68,0004.91,0004.26
2022-07-30 04:28:00,,0830.4,4.99,0.00,30.0,28.8,00.0,38.8,31.9,28.6,0000.0,0009.91,0004.88,0004.24
2022-07-30 04:29:00,,0830.5,5.00,0.00,30.1,28.8,00.0,38.8,32.0,28.5,0000.0,0009.86,0004.86,0004.24
2022-07-30 04:30:00,,0830.4,5.00,0.00,30.1,28.9,00.0,38.8,32.0,28.4,0000.0,0009.41,0004.91,0004.26
2022-07-30 04:31:00,,0830.4,5.00,0.00,30.1,28.6,00.0,38.8,31.9,28.6,0000.0,0008.99,0004.88,0004.27
2022-07-30 04:32:00,,0830.4,5.00,0.00,30.0,27.9,00.0,38.7,31.8,28.8,0000.0,0009.37,0004.90,0004.27
2022-07-30 04:33:00,,0830.4,5.00,0.00,30.0,27.6,00.0,38.7,31.7,28.5,0000.0,0009.38,0004.90,0004.28
2022-07-30 04:34:00,,0830.4,5.01,0.00,29.9,27.5,00.0,38.7,31.6,28.6,0000.0,0009.56,0004.91,0004.29
2022-07-30 04:35:00,,0830.4,4.99,0.00,29.8,27.6,00.0,38.6,31.6,28.6,0000.0,0009.68,0004.87,0004.28
2022-07-30 04:36:00,,0830.4,5.01,0.00,29.8,27.7,00.0,38.6,31.6,28.9,0000.0,0009.44,0004.84,0004.27
2022-07-30 04:37:00,,0830.4,5.00,0.00,29.8,27.8,00.0,38.6,31.6,28.7,0000.0,0009.00,0004.87,0004.27
2022-07-30 04:38:00,,0830.4,5.00,0.00,29.8,27.9,00.0,38.6,31.6,28.7,0000.0,0008.99,0004.87,0004.28
2022-07-30 04:39:00,,0830.4,5.00,0.00,29.8,28.1,00.0,38.6,31.6,28.7,0000.0,0009.00,0004.88,0004.30
2022-07-30 04:40:00,,0830.4,5.00,0.00,29.8,28.2,00.0,38.6,31.6,28.7,0000.0,0008.98,0004.88,0004.31
2022-07-30 04:41:00,,0830.3,5.00,0.00,29.8,28.3,00.0,38.6,31.6,28.6,0000.0,0008.92,0004.87,0004.32
2022-07-30 04:42:00,,0830.4,5.00,0.00,29.8,28.4,00.0,38.6,31.6,28.3,0000.0,0008.77,0004.87,0004.35
2022-07-30 04:43:00,,0830.3,4.99,0.00,29.8,28.4,00.0,38.6,31.6,28.4,0000.0,0008.38,0004.89,0004.36
2022-07-30 04:44:00,,0830.3,5.00,0.00,29.8,28.5,00.0,38.6,31.7,28.5,0000.0,0008.45,0004.90,0004.37
2022-07-30 04:45:00,,0830.3,4.99,0.00,29.8,28.6,00.0,38.6,31.7,28.3,0000.0,0008.32,0004.88,0004.39
2022-07-30 04:46:00,,0830.3,5.00,0.00,29.8,28.6,00.0,38.6,31.7,28.2,0000.0,0007.91,0004.88,0004.41
2022-07-30 04:47:00,,0830.3,5.01,0.00,29.9,28.7,00.0,38.6,31.7,28.0,0000.0,0008.03,0004.92,0004.44
2022-07-30 04:48:00,,0830.3,5.00,0.00,29.9,28.7,00.0,38.6,31.7,28.0,0000.0,0007.96,0004.89,0004.45
2022-07-30 04:49:00,,0830.3,5.00,0.00,29.9,28.8,00.0,38.6,31.8,27.9,0000.0,0007.99,0004.90,0004.47
2022-07-30 04:50:00,,0830.3,4.99,0.00,29.9,28.8,00.0,38.6,31.8,27.7,0000.0,0008.16,0004.91,0004.46
2022-07-30 04:51:00,,0830.2,5.00,0.00,29.9,28.8,00.0,38.7,31.9,27.7,0000.0,0008.72,0004.90,0004.45
2022-07-30 04:52:00,,0830.2,4.99,0.00,30.0,28.9,00.0,38.7,31.9,27.6,0000.0,0008.96,0004.91,0004.45
2022-07-30 04:53:00,,0830.2,5.01,0.00,30.0,28.8,00.0,38.7,31.8,27.5,0000.0,0008.98,0004.90,0004.44
2022-07-30 04:54:00,,0830.3,5.00,0.00,29.9,28.1,00.0,38.6,31.7,27.6,0000.0,0009.06,0004.89,0004.43
2022-07-30 04:55:00,,0830.3,5.01,0.00,29.9,27.6,00.0,38.6,31.6,27.7,0000.0,0009.04,0004.89,0004.44
2022-07-30 04:56:00,,0830.3,5.00,0.00,29.8,27.5,00.0,38.6,31.4,27.9,0000.0,0009.01,0004.92,0004.45
2022-07-30 04:57:00,,0830.2,5.01,0.00,29.7,27.5,00.0,38.6,31.4,28.1,0000.0,0009.06,0004.95,0004.45
2022-07-30 04:58:00,,0830.2,4.99,0.00,29.7,27.6,00.0,38.5,31.4,28.3,0000.0,0009.08,0004.94,0004.45
2022-07-30 04:59:00,,0830.2,5.00,0.00,29.7,27.7,00.0,38.5,31.4,28.3,0000.0,0009.15,0004.94,0004.44
